sat.trackr.live / text

‹ back to catalog

CYGFM08

NORAD 41888 · 2016-078E

PAYLOAD INACTIVE UNKNOWN

§ Identity

Operator
Country
US
Launch date
2016-12-15
Launch site
ERAS
Launch vehicle
Mass (kg)
RCS (m²)
0.20

Purposes: earth_obs

External: N2YO · Heavens-Above · Gunter

§ Orbital elements

Epoch: 2026-05-25T01:56:06.565056Z

Period
92.39 min
Inclination
34.9444°
Eccentricity
0.0009933
Mean motion
15.58648863 rev/d
Perigee alt
384.8 km
Apogee alt
398.3 km
Semi-major
6,769.7 km
B*
3.1792e-4
RAAN
34.8793°
Arg perigee
313.2927°
Mean anomaly
46.6968°
Rev number
52,536

§ Raw data

CYGFM081 41888U 16078E   26145.08063154  .00025328  00000+0  31792-3 0  99902 41888  34.9444  34.8793 0009933 313.2927  46.6968 15.58648863525368

JSON: /api/v1/satellites/41888 · /tle

For live sub-satellite position, see the globe view (requires WebGL).

§ Visibility from observer

Set your observer location to see the next 7 days of passes ≥ 10°. The values pass through the URL so the page stays shareable.

No JS? Fill the form by hand. The geolocation button needs JavaScript.